map of TRU home
TRU - Airport
Location
City:  Trujillo, La Libertad, Perú
Name:Capitán FAP Carlos Martínez de Pinillos International Airport
ICAO:SPRU
IATA:TRU

Details
Type:Airport (Aerodrome, Airfield)
Use:Public/Civil, International (customs port of entry)
Latitude:8°04'54"S (-8.081707)
Longitude:79°06'31"W (-79.108646)
Elevation:128 ft (39 m)
Variation:1.53°W (WMM2015 magnetic declination)
-0.16° annual change
Runways:1
Longest:9843 × 148 ft (3000 × 45 m), paved

Time
Time Zone:UTC-5
Local Time:

Weather
METAR:SPRU 111900Z 16009KT 9000 FEW025 BKN150 21/18 Q1012 RMK BR PP000
TAF:SPRU 111700Z 1118/1218 17012KT 9999 SCT030 BKN130 TX24/1119Z TN18/1211Z
FM112200 15010KT 9999 BKN130
FM120400 14005KT 7000 NSC
TEMPO 1210/1212 4000 BR BKN008

Related Locations
Nearby:
Farthest:VTSN: 12376 mi / 19917 km
Nakhon Si Thammarat [Cha Ian], 80, TH

Find:

   beyond  
but within

Other Information
Maps:
NOTAMs:
Links:
Sources:

  
  • flag of Perú
  • flag of La Libertad
  

Sectional Chart

Flight Planning
at skyvector.com

Satellite Image

Google Maps Satellite view

 

Copyright © 2004-2018 Karl L. Swartz. All rights reserved.
The Great Circle Mapper name and logo are trademarks of the Great Circle Mapper.
All other trademarks mentioned herein belong to their respective owners.
Please see credits for attibutions and further copyright information.

  Follow gcmap on Facebook Follow gcmap on Twitter Follow gcmap on Google+ GCmap on LinkedIn

hCard Microformat

Geo Microformat